Temperature
8 9 9 11 12 13 13 13 13 13 13 13 13 14 15 15 15 15 15 15 15 14 14 15 15 16 16 16 17 17 16 16 16 16 16 16 17 17 17 17 17 16 16 15
8 9 11 11 11 11 12 12 12 12 12 13 13 14 14 14 14 13 14 14 14 13 13 13 14 15 15 16 16 16 16 16 16 16 16 16 16 16 17 17 17 17 16 16
8 9 10 10 10 10 11 12 12 12 11 11 12 14 14 13 12 12 12 12 12 12 12 12 13 14 15 15 15 16 16 16 16 16 15 15 15 15 15 16 17 17 17 16
8 9 9 10 10 11 10 12 12 11 12 13 12 14 14 13 12 12 12 11 11 11 11 11 11 12 13 14 14 15 15 15 15 15 15 15 14 14 15 16 16 16 16 16
7 8 9 9 10 11 10 11 11 11 12 12 12 13 14 13 12 12 12 11 10 10 10 10 11 12 12 13 13 14 14 14 15 15 15 14 14 14 14 14 14 15 15 15
8 9 9 9 10 10 9 10 9 10 10 11 12 13 14 13 13 12 12 11 10 9 9 9 10 11 12 12 13 13 13 14 14 14 14 14 14 14 13 13 13 14 14 14
7 8 8 9 8 8 10 10 9 10 10 12 10 11 14 13 12 12 11 11 10 9 9 9 10 10 11 12 12 13 13 13 13 13 13 13 14 13 13 13 13 13 13 13
8 7 8 8 9 8 9 10 11 11 12 12 9 11 13 12 11 10 10 10 9 9 9 8 9 9 10 11 11 11 12 12 12 12 12 12 13 13 13 13 13 13 12 13
9 7 7 8 8 9 9 9 10 10 10 11 12 11 11 11 11 11 11 10 9 9 8 8 8 9 9 10 10 10 11 11 11 11 11 12 12 12 12 12 12 12 12 12
9 7 7 7 8 7 9 9 9 9 10 12 12 12 13 11 11 11 11 11 10 8 8 7 8 8 8 9 9 9 9 10 10 10 10 11 11 11 11 11 11 11 11 11
9 8 7 7 8 8 8 8 9 10 10 12 13 13 13 12 12 12 11 10 9 8 7 6 7 7 7 8 8 8 8 9 9 9 9 9 10 10 10 10 10 10 10 10
9 9 7 7 7 8 9 9 9 9 9 9 12 13 11 12 12 11 10 9 8 7 6 6 6 6 6 7 7 7 7 7 8 8 8 8 8 9 9 9 9 9 9 9
9 8 7 7 7 7 8 8 8 8 8 9 11 12 10 11 11 10 10 9 8 6 6 5 5 5 6 6 6 6 6 6 6 6 6 7 7 7 7 7 8 8 8 8
9 8 8 9 9 8 7 7 8 8 8 9 10 11 11 11 11 11 10 9 7 6 5 5 4 4 5 5 5 5 5 5 6 6 6 6 6 6 6 6 6 6 7 6
9 8 7 8 7 8 8 8 7 8 9 9 10 10 11 12 11 10 9 8 7 5 4 4 4 4 4 4 4 4 4 5 5 5 5 5 4 4 5 5 5 5 5 5
9 8 7 7 7 7 7 8 8 8 8 9 9 9 11 11 10 9 9 8 7 5 4 3 3 3 3 3 4 3 4 4 4 4 4 3 3 3 3 3 3 3 3 3
8 8 8 8 7 7 8 8 8 8 8 9 9 10 11 10 10 10 9 7 6 4 3 3 2 2 2 2 3 3 3 3 3 3 3 2 2 2 2 2 2 2 1 1
8 8 8 8 7 7 10 9 9 8 9 9 9 10 10 10 9 8 7 6 5 4 3 2 2 2 2 2 2 2 2 2 2 2 2 1 1 1 1 1 0 0 0 0
8 8 7 7 8 9 9 8 8 8 9 9 9 10 10 9 8 8 6 5 5 3 3 2 2 1 1 1 1 1 1 1 1 1 1 0 0 0 0 -0 -0 -0 -0 -1
7 8 7 7 7 8 10 9 8 9 9 10 9 10 9 8 10 10 6 5 4 3 2 2 1 1 1 1 0 0 0 0 0 0 -0 -0 -0 -0 -0 -0 -1 -1 -1 -1
6 6 7 7 7 9 9 8 8 9 10 9 9 9 9 9 9 7 5 4 3 2 2 1 1 1 0 0 -0 0 0 0 -0 -0 -0 -0 -1 -0 -0 -1 -1 -1 -1 -1
7 7 7 7 7 8 9 8 9 10 9 8 8 8 8 7 6 6 5 4 3 2 2 1 1 0 0 -0 -0 -0 -0 -0 -0 -0 -0 -1 -1 -1 -1 -1 -1 -1 -1 -1
8 8 9 8 9 9 8 8 8 8 8 8 8 7 7 7 6 5 4 3 3 2 1 1 1 0 0 -0 -0 -0 -0 -0 -0 -0 -0 -0 -0 -1 -1 -1 -1 -1 -1 -2
8 7 8 8 8 8 8 7 7 7 7 7 7 7 7 6 6 5 4 3 3 2 1 1 1 0 0 0 0 0 0 -0 -0 -0 -0 -0 -1 -1 -1 -1 -1 -2 -2 -2
8 7 7 8 8 8 7 7 7 7 7 7 7 7 7 6 6 5 4 4 3 2 2 1 1 1 1 1 0 0 0 0 0 -0 -0 -0 -1 -1 -1 -1 -2 -2 -2 -2
7 7 8 8 8 8 7 6 6 6 6 6 6 6 6 6 6 5 4 4 3 3 2 2 2 1 1 1 1 0 0 0 0 -0 -0 -1 -1 -1 -1 -2 -2 -2 -3 -3
Wind_Speed
11 11 16 19 18 8 12 13 11 10 6 9 11 12 11 10 11 12 12 11 11 10 9 7 7 7 7 8 9 11 12 13 12 11 11 12 13 13 13 13 17 19 19 20
9 14 16 15 13 8 11 12 10 6 5 5 7 10 9 8 9 9 9 9 8 7 6 5 5 4 5 6 7 9 10 11 12 11 12 11 12 11 13 12 15 19 20 20
10 9 13 14 14 12 11 11 10 7 5 3 4 6 5 3 3 2 3 3 3 3 3 2 1 1 2 3 4 5 8 9 10 11 10 9 10 10 10 13 14 17 20 21
6 6 13 15 15 13 10 7 8 7 6 4 4 4 5 5 6 5 5 4 3 2 2 2 2 2 2 2 3 3 4 6 7 8 10 13 13 14 15 14 13 15 18 19
6 8 15 15 13 11 6 7 7 5 4 3 5 5 5 7 7 6 6 5 5 4 3 3 3 3 3 4 3 3 3 3 4 6 9 11 13 14 13 13 15 15 14 16
6 4 6 7 7 9 10 8 6 3 2 5 7 7 6 7 8 8 6 5 5 5 5 5 5 4 5 5 5 4 4 3 3 4 6 9 12 13 14 15 14 13 12 12
6 4 3 5 9 7 8 7 5 5 6 6 4 6 5 6 6 7 5 4 4 4 5 5 6 6 6 7 7 6 6 5 5 5 5 7 9 12 14 14 14 14 12 11
7 6 3 3 5 8 9 7 4 5 6 4 5 6 3 4 5 5 3 1 2 3 4 5 6 6 6 7 7 7 7 7 7 6 6 6 8 8 9 12 12 12 11 11
6 5 4 4 3 7 8 6 0 1 1 3 5 4 2 5 7 7 4 1 2 3 4 5 5 6 7 7 8 8 8 8 8 8 8 7 7 7 9 10 10 9 9 8
5 7 5 4 5 5 2 6 4 4 4 4 5 6 8 14 12 8 3 1 2 3 3 4 5 6 6 7 7 8 8 8 9 9 8 7 7 7 7 7 8 7 7 6
5 6 5 4 4 6 5 4 3 3 2 3 4 4 5 15 11 6 2 1 2 3 3 4 4 5 5 6 7 8 8 9 9 9 8 8 7 7 6 5 5 5 4 3
3 5 5 3 1 2 4 5 6 4 4 3 2 3 5 10 8 4 0 1 1 2 2 3 4 4 5 6 7 8 8 8 9 9 8 7 7 7 6 5 4 2 1 1
5 6 6 4 3 4 4 5 5 3 2 3 3 4 4 7 5 3 3 2 1 1 2 2 3 5 5 6 7 7 8 8 8 8 8 8 8 8 7 6 6 5 5 6
3 3 2 4 3 7 7 8 9 6 4 5 5 2 5 6 5 4 4 2 1 1 1 2 3 4 5 5 6 7 7 8 8 8 8 9 9 9 8 8 8 8 9 9
2 3 2 2 2 4 6 10 13 12 8 6 3 4 5 5 5 5 4 3 2 0 1 2 3 4 4 5 6 6 7 7 7 8 9 9 9 9 10 10 11 11 11 12
2 3 3 2 2 3 5 9 13 14 12 11 8 8 7 5 4 5 5 3 2 1 0 1 2 3 4 5 5 6 6 7 7 9 9 9 9 10 11 11 12 12 12 12
3 4 3 2 1 2 7 11 14 10 11 11 13 9 5 5 6 7 5 4 2 2 1 1 1 2 3 4 4 5 6 6 8 9 9 9 9 10 10 11 11 12 12 12
4 4 2 2 2 5 0 1 8 12 12 12 10 9 8 8 7 6 3 2 3 3 3 2 2 3 3 3 4 5 6 7 8 9 9 9 9 10 10 11 11 11 10 11
2 3 2 2 3 5 3 3 5 7 6 11 14 13 9 6 5 3 3 3 3 3 3 3 3 4 4 4 5 6 7 7 8 8 8 8 8 9 10 10 10 9 10 10
2 2 3 3 3 3 1 2 3 4 3 2 6 7 5 3 4 1 6 5 5 5 5 5 5 5 5 5 5 6 7 8 8 7 7 8 8 9 9 9 9 9 9 9
4 3 5 5 4 4 1 2 5 4 3 2 2 3 3 4 3 3 7 6 6 6 6 6 5 5 5 5 6 7 7 7 7 7 8 8 8 9 9 9 8 8 8 9
8 6 6 5 6 4 3 5 4 1 1 1 2 2 3 3 2 5 6 7 7 7 7 6 6 5 5 5 7 8 7 6 7 8 8 8 8 7 7 8 8 7 8 8
7 6 4 5 4 1 2 3 2 2 3 3 3 3 3 3 4 5 7 8 8 8 7 7 7 7 5 5 7 8 6 7 8 8 8 8 8 7 7 7 7 6 5 5
5 5 4 5 6 5 5 4 3 3 4 4 4 3 3 4 5 6 7 8 9 9 8 8 8 8 7 6 6 7 7 7 8 8 7 7 7 7 6 5 4 4 4 4
4 6 5 6 5 4 2 1 1 2 2 2 2 3 4 4 5 7 8 9 9 9 9 9 8 8 8 8 8 8 8 8 9 8 7 6 6 6 6 5 5 4 4 3
6 7 6 5 2 2 1 1 2 3 3 4 4 4 3 4 5 7 8 9 10 10 10 9 9 9 9 9 8 8 8 8 9 8 7 5 5 5 5 5 5 7 6 6
Wind_Direction
176 184 190 188 194 209 190 191 191 191 172 201 221 237 244 251 250 251 250 248 247 251 261 267 266 256 245 240 238 237 234 229 225 220 218 220 224 226 226 227 228 225 222 218
169 197 193 184 183 181 180 185 182 163 169 210 228 248 253 254 249 252 251 248 248 252 255 263 266 257 247 244 242 243 241 239 232 227 225 226 229 231 229 228 230 228 224 220
177 178 174 175 177 181 188 189 178 159 154 178 251 239 211 187 183 196 216 231 239 246 253 269 282 277 266 265 262 255 251 248 242 238 234 232 233 235 233 230 230 228 225 223
158 158 172 178 183 183 185 180 170 164 185 185 228 216 164 145 129 120 114 109 103 94 83 52 36 31 11 334 316 293 277 262 254 244 236 231 230 232 234 235 235 233 228 226
156 167 174 181 184 184 158 142 148 165 190 211 211 233 173 161 147 123 103 89 78 69 63 53 37 25 22 10 354 335 315 292 277 258 245 241 240 242 245 244 243 240 234 228
120 140 165 170 157 157 132 119 101 110 189 228 208 217 192 175 161 140 113 88 75 64 57 52 45 38 32 24 16 2 348 334 316 286 263 249 248 248 249 248 247 245 241 233
114 109 98 133 131 146 163 159 162 181 202 218 159 216 209 148 155 150 126 87 59 51 44 37 31 26 21 15 10 2 355 345 336 315 287 269 261 257 253 252 251 249 245 238
141 137 136 149 163 168 180 194 205 195 193 170 177 219 157 138 162 170 163 94 49 42 33 27 21 14 9 4 1 356 350 341 337 327 312 295 280 268 261 258 256 254 250 246
143 124 110 94 111 153 164 193 343 96 110 202 196 212 209 162 169 174 167 115 53 30 21 16 12 7 2 358 355 349 343 338 336 330 319 308 299 283 275 271 265 260 257 254
118 122 126 127 108 53 125 147 161 188 205 213 186 198 179 169 168 166 158 78 35 19 13 11 7 3 359 355 351 351 349 343 338 335 329 318 311 301 290 279 269 264 260 251
108 119 132 152 176 165 149 164 177 177 242 241 192 153 152 164 160 156 140 19 358 360 2 5 4 3 1 2 2 1 359 353 349 345 340 336 334 330 320 303 289 276 265 247
100 120 130 123 43 211 204 189 178 192 200 224 257 123 131 164 161 162 284 328 340 356 6 9 10 12 13 12 10 7 4 1 356 352 353 356 355 356 358 360 358 360 30 101
132 130 131 146 177 186 199 188 188 145 142 192 213 137 131 174 189 220 286 309 323 1 19 21 24 20 18 16 14 13 12 7 3 5 11 15 16 18 22 26 33 47 66 79
119 130 192 185 165 172 190 191 185 177 196 204 228 180 173 193 219 274 302 307 318 33 36 28 28 26 22 20 19 18 18 15 16 24 31 31 29 32 38 44 49 58 69 77
102 116 111 88 121 167 197 197 196 206 215 219 222 230 223 230 264 289 297 296 291 312 44 34 27 24 25 27 27 25 26 27 32 42 46 44 43 48 55 59 61 64 68 74
93 121 132 136 163 204 230 219 211 219 227 236 255 270 263 263 264 275 288 288 276 237 114 52 38 27 31 33 33 33 37 39 47 55 54 53 56 58 61 65 69 71 72 75
141 149 167 178 167 229 251 225 208 209 215 221 233 243 254 269 283 295 296 279 250 198 163 128 78 52 47 47 49 51 52 57 62 64 62 61 65 66 67 71 73 75 76 78
151 147 152 174 198 239 117 127 205 216 226 221 235 249 262 275 294 295 279 231 183 169 163 148 122 97 84 78 76 76 72 72 72 71 69 69 73 75 75 76 75 75 76 78
161 165 171 212 250 272 270 193 182 197 234 226 232 250 264 281 282 239 160 152 149 150 143 133 122 117 108 95 92 91 84 81 76 74 75 77 83 85 83 81 78 77 79 77
116 163 191 208 249 244 100 115 178 191 195 159 207 237 249 241 270 230 149 149 143 140 138 133 129 124 114 103 102 96 89 85 80 80 83 84 87 89 88 87 85 83 84 85
172 185 207 222 249 270 266 152 162 203 143 140 212 244 236 238 280 112 147 152 150 146 142 138 134 125 116 116 112 103 97 91 91 92 90 87 89 91 94 93 92 94 94 92
197 198 204 208 227 248 130 159 193 37 56 270 268 271 256 242 177 157 163 160 157 153 151 149 140 127 121 124 121 113 105 104 103 100 95 91 91 94 98 100 99 100 103 101
212 215 214 218 235 27 177 219 289 304 276 276 272 273 249 226 208 186 177 171 167 164 160 157 148 136 128 128 131 125 122 121 115 107 101 99 97 96 102 106 108 105 102 101
218 207 224 250 256 254 256 258 274 276 269 282 279 271 243 237 215 191 180 175 171 170 167 163 157 148 142 141 139 134 135 133 126 118 112 110 107 102 98 95 97 100 100 103
216 187 213 242 260 272 217 172 354 331 315 308 296 263 248 236 214 195 185 180 175 172 170 169 166 159 153 151 148 145 145 143 134 127 122 118 113 113 104 92 81 85 78 77
206 203 209 230 219 227 206 71 359 327 315 310 299 283 255 232 221 198 189 181 176 173 171 172 170 163 161 160 156 155 156 154 145 139 138 135 131 124 120 117 104 80 82 86
Height
1470 1474 1472 1473 1476 1476 1477 1481 1485 1487 1492 1493 1491 1491 1490 1492 1493 1493 1493 1494 1494 1495 1495 1496 1496 1497 1499 1501 1502 1504 1506 1508 1510 1511 1512 1512 1514 1515 1516 1517 1519 1520 1521 1523
1469 1469 1469 1473 1477 1479 1479 1481 1484 1489 1492 1491 1490 1488 1488 1489 1489 1490 1490 1490 1491 1491 1491 1491 1491 1492 1494 1495 1497 1499 1500 1503 1504 1505 1506 1507 1508 1509 1510 1511 1512 1514 1515 1516
1463 1466 1470 1473 1477 1480 1480 1480 1483 1487 1491 1492 1490 1484 1485 1487 1488 1488 1488 1488 1488 1488 1488 1488 1487 1487 1488 1490 1491 1493 1494 1496 1498 1499 1500 1501 1501 1502 1503 1504 1505 1507 1508 1509
1465 1467 1470 1473 1476 1477 1481 1482 1484 1487 1486 1485 1487 1478 1481 1484 1486 1487 1487 1486 1486 1486 1486 1485 1485 1485 1485 1485 1486 1488 1489 1490 1491 1492 1493 1494 1494 1495 1496 1498 1498 1499 1500 1501
1466 1467 1469 1472 1475 1477 1480 1484 1486 1487 1486 1486 1486 1481 1476 1482 1483 1485 1486 1486 1486 1485 1484 1484 1483 1483 1483 1483 1483 1484 1484 1485 1486 1486 1487 1488 1488 1489 1490 1491 1491 1492 1493 1493
1467 1469 1470 1472 1476 1479 1484 1488 1491 1491 1489 1487 1481 1480 1473 1476 1479 1483 1485 1486 1485 1485 1484 1483 1482 1481 1481 1481 1481 1481 1481 1481 1481 1481 1482 1482 1482 1483 1483 1484 1485 1485 1485 1486
1468 1471 1473 1474 1479 1484 1482 1485 1488 1489 1487 1478 1486 1482 1471 1476 1480 1483 1484 1485 1485 1484 1483 1482 1481 1480 1480 1479 1478 1478 1478 1477 1477 1477 1477 1476 1476 1476 1476 1477 1477 1478 1478 1478
1463 1471 1475 1475 1475 1478 1479 1480 1479 1475 1473 1474 1489 1479 1473 1479 1482 1484 1485 1485 1484 1484 1482 1481 1480 1479 1478 1477 1476 1475 1474 1474 1473 1472 1471 1471 1470 1470 1470 1470 1470 1470 1470 1471
1458 1471 1476 1477 1477 1476 1480 1480 1481 1478 1481 1475 1472 1476 1476 1479 1481 1482 1483 1484 1483 1482 1481 1480 1478 1477 1476 1474 1473 1472 1471 1470 1469 1467 1466 1466 1465 1464 1464 1463 1463 1463 1463 1464
1458 1470 1476 1478 1478 1481 1479 1480 1483 1482 1477 1466 1466 1468 1466 1475 1477 1480 1481 1481 1482 1481 1480 1478 1477 1475 1473 1472 1471 1469 1468 1466 1465 1463 1462 1461 1460 1459 1458 1457 1457 1456 1456 1457
1459 1467 1478 1478 1478 1478 1482 1483 1480 1477 1477 1468 1460 1463 1464 1469 1474 1477 1479 1480 1480 1479 1478 1476 1475 1473 1471 1470 1468 1466 1464 1463 1461 1459 1458 1456 1455 1454 1453 1452 1451 1451 1451 1451
1462 1465 1473 1479 1481 1479 1478 1477 1478 1477 1478 1477 1466 1467 1469 1470 1474 1477 1478 1478 1478 1477 1476 1474 1472 1471 1469 1467 1465 1464 1462 1460 1458 1456 1454 1452 1451 1449 1448 1448 1447 1446 1446 1446
1462 1466 1473 1478 1482 1481 1478 1478 1478 1479 1479 1477 1468 1467 1471 1472 1474 1475 1476 1476 1475 1474 1473 1472 1470 1468 1467 1465 1463 1461 1459 1458 1456 1454 1452 1450 1448 1447 1446 1445 1444 1444 1443 1443
1462 1464 1465 1463 1462 1469 1474 1476 1477 1478 1476 1472 1469 1466 1469 1470 1471 1472 1473 1473 1473 1472 1470 1469 1468 1466 1464 1463 1461 1459 1458 1456 1454 1452 1450 1448 1447 1445 1444 1443 1442 1442 1441 1441
1462 1465 1467 1468 1469 1470 1470 1471 1474 1475 1471 1470 1466 1469 1466 1467 1469 1470 1470 1470 1470 1469 1468 1466 1465 1464 1462 1461 1459 1458 1456 1454 1453 1451 1449 1447 1446 1445 1443 1442 1442 1441 1441 1441
1463 1466 1468 1470 1470 1470 1470 1469 1470 1471 1470 1470 1470 1468 1464 1466 1467 1467 1467 1467 1466 1466 1465 1464 1463 1462 1461 1459 1458 1457 1455 1453 1452 1450 1449 1447 1446 1445 1444 1443 1443 1442 1442 1441
1464 1465 1467 1466 1470 1470 1465 1460 1464 1465 1465 1465 1466 1463 1462 1464 1464 1463 1463 1463 1463 1463 1462 1462 1461 1460 1459 1458 1457 1456 1454 1453 1452 1450 1449 1448 1447 1446 1445 1445 1445 1444 1444 1444
1464 1465 1466 1466 1469 1468 1456 1456 1457 1459 1460 1462 1461 1460 1461 1461 1461 1461 1460 1460 1460 1460 1460 1459 1459 1458 1458 1457 1456 1455 1454 1453 1452 1451 1450 1450 1449 1448 1448 1447 1447 1447 1447 1448
1464 1465 1465 1466 1462 1456 1454 1456 1457 1458 1456 1456 1458 1458 1459 1459 1459 1458 1457 1458 1458 1458 1457 1457 1457 1457 1457 1456 1456 1455 1455 1454 1453 1452 1452 1452 1451 1451 1451 1451 1451 1452 1452 1452
1466 1465 1466 1465 1463 1455 1452 1454 1455 1457 1453 1453 1455 1455 1456 1457 1455 1454 1456 1455 1455 1455 1455 1455 1455 1456 1456 1456 1456 1455 1455 1455 1454 1454 1454 1454 1454 1454 1454 1455 1455 1456 1456 1456
1465 1466 1465 1463 1460 1451 1452 1454 1456 1456 1452 1453 1453 1454 1454 1454 1454 1454 1453 1453 1453 1454 1454 1454 1455 1455 1456 1456 1456 1456 1456 1456 1456 1457 1457 1457 1458 1458 1458 1458 1459 1459 1459 1460
1458 1459 1460 1459 1459 1454 1452 1453 1453 1451 1452 1452 1452 1452 1452 1452 1451 1451 1451 1451 1451 1452 1452 1453 1454 1455 1455 1456 1456 1457 1457 1458 1458 1459 1459 1460 1460 1461 1461 1461 1462 1462 1462 1462
1454 1453 1452 1453 1452 1451 1451 1451 1452 1451 1451 1451 1451 1450 1450 1449 1449 1449 1449 1449 1450 1450 1451 1452 1453 1454 1455 1456 1457 1458 1459 1460 1461 1461 1462 1463 1463 1463 1464 1464 1464 1464 1464 1464
1452 1453 1453 1451 1448 1449 1450 1450 1450 1449 1449 1449 1448 1448 1447 1447 1446 1446 1446 1447 1448 1449 1450 1451 1452 1454 1455 1456 1458 1459 1460 1461 1463 1463 1464 1465 1465 1465 1466 1466 1466 1466 1465 1465
1447 1450 1450 1448 1447 1447 1447 1447 1448 1448 1447 1447 1446 1445 1445 1444 1444 1443 1444 1444 1446 1447 1448 1450 1452 1453 1455 1456 1458 1460 1461 1462 1464 1465 1465 1466 1466 1467 1467 1467 1467 1466 1466 1465
1445 1445 1445 1443 1444 1445 1446 1446 1446 1446 1445 1444 1443 1442 1442 1441 1441 1441 1441 1442 1443 1445 1447 1448 1450 1452 1454 1456 1458 1460 1461 1463 1464 1465 1466 1466 1467 1467 1467 1467 1467 1466 1466 1464